Lexington Weather

Lexington, Massachusetts, USA

34°F
4/16/2021 9:18am 
  • Lexington Conditions: Snow, Mist, Overcast
  • Temperature: 34.3°F / 1.3°CColder 4.2°F than last hour.
  • Dew Point: 33.1°FDecreased 4.1°Fsince last hour.
  • Relative Humidity: 95
  • Wind: Wind from N N Calm, 10-min avg: 1 mph, gust: 3 mph
  • Barometer: 29.48 inFalling 0.04  inHg/hr Falling Slowly
  • Visibility: ½ mile
  • Snow Today: 0.3 in
  •   

Regional Weather Roundup
for Boston / Norton, MA

        
000
ASUS41 KBOX 121604
RWRBOX

REGIONAL WEATHER ROUNDUP
NATIONAL WEATHER SERVICE BOSTON/NORTON MA
1200 PM EDT MON APR 12 2021

NOTE:  "FAIR" INDICATES FEW OR NO CLOUDS BELOW 12,000 FEET WITH NO 
SIGNIFICANT WEATHER AND/OR OBSTRUCTIONS TO VISIBILITY.

MAZALL-121700-
EASTERN MASSACHUSETTS
  
CITY           SKY/WX    TMP DP  RH WIND       PRES   REMARKS
BOSTON         DRIZZLE   48  45  89 NE17      29.86R FOG              
BEVERLY        LGT RAIN  46  43  89 E13G25    29.86R FOG              
LAWRENCE       CLOUDY    49  44  83 NE22G29   29.87S                  
BEDFORD        DRIZZLE   49  44  83 E14G22    29.84R FOG              
BLUE HILL        N/A     44  43  96 E18G25    29.82R                  
NORWOOD        CLOUDY    49  44  83 E15       29.84S FOG              
MARSHFIELD     PTSUNNY   48  45  87 NE15G25   29.85R FOG              
PLYMOUTH       CLOUDY    47  40  76 NE17G32   29.82S                  
TAUNTON        CLOUDY    49  40  71 E10G20    29.82R                  
NEW BEDFORD    CLOUDY    50  41  71 NE16G31   29.80S                  
$$

MAZALL-121700-
CAPE COD AND THE ISLANDS
  
CITY           SKY/WX    TMP DP  RH WIND       PRES   REMARKS
FALMOUTH       CLOUDY    46  39  76 NE25G35   29.79F                  
HYANNIS        LGT RAIN  48  41  76 NE17G26   29.77F                  
CHATHAM        LGT RAIN  45  42  89 NE14G25   29.81S FOG              
PROVINCETOWN   CLOUDY    47  42  83 NE20        N/A                   
NANTUCKET      CLOUDY    48  41  76 NE20G31   29.76F                  
MARTHAS VNYRD  CLOUDY    48  43  82 NE18G29   29.78S                  
$$
 
MAZALL-121700-
CENTRAL AND WESTERN MASSACHUSETTS
  
CITY           SKY/WX    TMP DP  RH WIND       PRES   REMARKS
WORCESTER      CLOUDY    47  41  80 E14G24    29.81S                  
FITCHBURG      CLOUDY    50  44  80 VRB7      29.85R                  
ORANGE         CLOUDY    50  42  74 VRB6      29.83S                  
SPRINGFIELD    LGT RAIN  48  44  85 NE7       29.82S                  
WESTFIELD      CLOUDY    50  41  71 E8        29.82S                  
NORTH ADAMS    CLOUDY    49  46  90 VRB7      29.81S                  
PITTSFIELD     CLOUDY    47  40  76 E5        29.79R                  
$$
 
RIZALL-121700-
RHODE ISLAND
  
CITY           SKY/WX    TMP DP  RH WIND       PRES   REMARKS
PROVIDENCE     CLOUDY    50  42  74 NE18      29.82R                  
NEWPORT        CLOUDY    49  41  74 NE17      29.79S                  
BLOCK ISLAND   CLOUDY    46  41  82 E14G21    29.80R                  
SMITHFIELD     CLOUDY    48  43  82 E10       29.82R                  
WESTERLY       CLOUDY    49  40  71 NE9       29.79S                  
$$
 
CTZALL-121700-
CONNECTICUT
  
CITY           SKY/WX    TMP DP  RH WIND       PRES   REMARKS
BRADLEY INTL   CLOUDY    51  40  65 NE10      29.82R                  
HARTFORD       CLOUDY    54  40  59 NE15      29.80R                  
BRIDGEPORT     CLOUDY    49  40  71 E8        29.79S                  
DANBURY        CLOUDY    55  37  50 E8        29.80S                  
GROTON         CLOUDY    52  41  66 NE16G25   29.78S                  
NEW HAVEN      CLOUDY    52  42  69 S6        29.78S                  
CHESTER        PTSUNNY  N/A N/A N/A E12       29.77F                  
MERIDEN        CLOUDY    56  37  49 VRB6      29.79S                  
WILLIMANTIC    CLOUDY    50  41  71 NE12      29.81R                  
OXFORD         LGT RAIN  48  40  73 N10       29.79S                  
$$

MEZ002-015-021-024-NHZ003-005-008-011-012-014-VTZ005-008-121700-
NORTHERN NEW ENGLAND
  
CITY           SKY/WX    TMP DP  RH WIND       PRES   REMARKS
PORTLAND ME    CLOUDY    51  43  74 NE10      29.89R                  
BANGOR ME      CLOUDY    52  39  61 NE16G22   29.93R                  
CONCORD NH     CLOUDY    52  42  69 E13       29.85S                  
MANCHESTER NH  CLOUDY    51  44  77 NE5       29.84S                  
NASHUA NH      LGT RAIN  49  49 100 E6        29.86S FOG              
PORTSMOUTH NH  CLOUDY    52  40  65 E20G32    29.88R                  
JAFFREY NH     CLOUDY    48  43  82 VRB3      29.83S                  
KEENE NH       CLOUDY    50  43  77 VRB7      29.84S                  
BURLINGTON VT  MOSUNNY   65  39  38 VRB7      29.80F                  
MT. WASHINGTON FRZ DRZL  30  30 100 E33G40      N/A  VSB 1/16WCI  14  
$$

NYZ052-076-121700-
EASTERN NEW YORK
  
CITY           SKY/WX    TMP DP  RH WIND       PRES   REMARKS
ALBANY         CLOUDY    50  41  71 E7        29.81S                  
NEW YORK CITY  LGT RAIN  48  38  68 NE15      29.78F                  
$$
 
ANZALL-121700-
MARINE OBSERVATIONS
  
STATION/POSITION TIME  TEMP    WIND        PRES    VSBY  WAVE
                       AIR SEA DIR/SP/G                  HT/PER
                 (UTC) (F)     (DEG/KT/KT) (MB)    (MI)  (FT/S)
BOSTON BUOY      1540   43 44   60/ 17/ 21 1011.0S
BUZZARDS BAY     1500           40/ 23/ 26 1009.3F
NANTUCKET SOUND  1540      47                N/A
MASS BAY-STELLWA 1504   44      70/ 16/ 21 1009.5R  1 7/8  3/ 5
ISLE OF SHOALS   1500   45      50/ 18/ 22 1010.6R
S OF BLOCK IS    1526      45                N/A           5/ 8
$$

......................KEY.........................
  SKY/WX - SKY CONDITION/PRESENT WEATHER
  TMP    - TEMPERATURE IN FAHRENHEIT
  DWPT   - DEWPOINT IN FAHRENHEIT
  RH     - RELATIVE HUMIDITY IN PERCENT
  WIND   - DIRECTION AND SPEED IN MPH
  PRES   - MEAN SEA LEVEL PRESSURE IN INCHES OF HG
  WCI    - WIND CHILL INDEX
  VSB    - VISIBILITY IN MILES
  HX     - HEAT INDEX
  TC     - TEMPERATURE IN CELSIUS
  VRB    - VARIABLE WIND DIRECTION
  N/A    - NOT AVAILABLE
  
      

Other recent Regional Weather Roundups

Fri Apr 16, 9:04am

Fri Apr 16, 8:04am

Fri Apr 16, 7:04am

Fri Apr 16, 6:04am

Fri Apr 16, 5:04am

Fri Apr 16, 4:04am

Fri Apr 16, 3:04am

Fri Apr 16, 2:04am

Fri Apr 16, 1:04am

Fri Apr 16, 12:04am

Thu Apr 15, 11:05pm

Thu Apr 15, 10:04pm

Thu Apr 15, 9:04pm

Thu Apr 15, 8:04pm

Thu Apr 15, 7:05pm

Thu Apr 15, 6:04pm

Thu Apr 15, 5:05pm

Thu Apr 15, 4:04pm

Thu Apr 15, 3:05pm

Thu Apr 15, 2:04pm

Thu Apr 15, 1:05pm

Thu Apr 15, 12:04pm

Thu Apr 15, 11:04am

Thu Apr 15, 10:05am

Thu Apr 15, 9:04am

Thu Apr 15, 8:04am

Thu Apr 15, 7:04am

Thu Apr 15, 6:04am

Thu Apr 15, 5:04am

Thu Apr 15, 4:04am

Thu Apr 15, 3:04am

Thu Apr 15, 2:04am

Thu Apr 15, 1:04am

Thu Apr 15, 12:04am

Wed Apr 14, 11:04pm

Wed Apr 14, 10:04pm

Wed Apr 14, 9:04pm

Wed Apr 14, 8:04pm

Wed Apr 14, 7:04pm

Wed Apr 14, 6:04pm

Wed Apr 14, 5:05pm

Wed Apr 14, 4:04pm

Wed Apr 14, 3:05pm

Wed Apr 14, 2:04pm

Wed Apr 14, 1:05pm

Wed Apr 14, 12:04pm

Wed Apr 14, 11:04am

Wed Apr 14, 10:04am

Wed Apr 14, 9:04am

Wed Apr 14, 8:04am

Wed Apr 14, 7:04am

Wed Apr 14, 6:04am

Wed Apr 14, 5:04am

Wed Apr 14, 4:04am

Wed Apr 14, 3:04am

Wed Apr 14, 2:04am

Wed Apr 14, 1:04am

Wed Apr 14, 12:04am

Tue Apr 13, 11:04pm

Tue Apr 13, 10:05pm

Tue Apr 13, 9:05pm

Tue Apr 13, 8:05pm

Tue Apr 13, 7:04pm

Tue Apr 13, 6:04pm

Tue Apr 13, 5:05pm

Tue Apr 13, 4:04pm

Tue Apr 13, 3:04pm

Tue Apr 13, 2:05pm

Tue Apr 13, 1:04pm

Tue Apr 13, 12:05pm

Tue Apr 13, 11:05am

Tue Apr 13, 10:04am

Tue Apr 13, 9:04am

Tue Apr 13, 8:04am

Tue Apr 13, 7:04am

Tue Apr 13, 6:04am

Tue Apr 13, 5:04am

Tue Apr 13, 4:04am

Tue Apr 13, 3:04am

Tue Apr 13, 2:04am

Tue Apr 13, 1:04am

Tue Apr 13, 12:05am

Mon Apr 12, 11:04pm

Mon Apr 12, 10:04pm

Mon Apr 12, 9:04pm

Mon Apr 12, 8:04pm

Mon Apr 12, 7:05pm

Mon Apr 12, 6:04pm

Mon Apr 12, 5:04pm

Mon Apr 12, 4:04pm

Mon Apr 12, 3:05pm

Mon Apr 12, 2:04pm

Mon Apr 12, 1:05pm

Mon Apr 12, 11:04am

Mon Apr 12, 10:04am

Mon Apr 12, 9:04am

Mon Apr 12, 8:04am

Mon Apr 12, 7:04am

Mon Apr 12, 6:04am

Mon Apr 12, 5:04am

Mon Apr 12, 4:04am

Mon Apr 12, 3:04am

Mon Apr 12, 2:04am

Mon Apr 12, 1:05am

Mon Apr 12, 12:04am

Sun Apr 11, 11:04pm

Sun Apr 11, 10:04pm

Sun Apr 11, 9:04pm

Sun Apr 11, 8:04pm

Sun Apr 11, 7:04pm

Sun Apr 11, 6:05pm

Sun Apr 11, 5:05pm

Sun Apr 11, 4:04pm

Sun Apr 11, 3:05pm

Sun Apr 11, 2:05pm

Sun Apr 11, 1:05pm

Sun Apr 11, 12:04pm

Sun Apr 11, 11:05am

Sun Apr 11, 10:05am

Sun Apr 11, 9:04am

Sun Apr 11, 8:04am

Sun Apr 11, 7:04am

Sun Apr 11, 6:04am

Sun Apr 11, 5:04am

Sun Apr 11, 4:04am

Sun Apr 11, 3:04am

Sun Apr 11, 2:04am

Sun Apr 11, 1:05am

Sun Apr 11, 12:04am

Sat Apr 10, 11:05pm

Sat Apr 10, 10:04pm

Sat Apr 10, 9:04pm

Sat Apr 10, 8:04pm

Sat Apr 10, 7:05pm

Sat Apr 10, 6:04pm

Sat Apr 10, 5:04pm

Sat Apr 10, 4:04pm

Sat Apr 10, 3:04pm

Sat Apr 10, 2:05pm

Sat Apr 10, 1:04pm

Sat Apr 10, 12:04pm

Sat Apr 10, 11:04am

Sat Apr 10, 10:04am

Sat Apr 10, 9:04am

Sat Apr 10, 8:04am

Sat Apr 10, 7:04am

Sat Apr 10, 6:04am

Sat Apr 10, 5:04am

Sat Apr 10, 4:04am

Sat Apr 10, 3:04am

Sat Apr 10, 2:04am

Sat Apr 10, 1:05am

Sat Apr 10, 12:04am

Fri Apr 9, 11:04pm

Fri Apr 9, 10:05pm

Fri Apr 9, 9:04pm

Fri Apr 9, 8:05pm

Fri Apr 9, 7:05pm

Fri Apr 9, 6:04pm

Fri Apr 9, 5:04pm

Fri Apr 9, 4:05pm

Fri Apr 9, 3:05pm

Fri Apr 9, 2:04pm

Fri Apr 9, 1:04pm

Fri Apr 9, 12:04pm

Fri Apr 9, 11:05am

Fri Apr 9, 10:04am

Fri Apr 9, 9:04am

Meta data:

ID: 6cfc894e-55be-492e-9b2a-ba0e029a1ea8
Link: https://api.weather.gov/products/6cfc894e-55be-492e-9b2a-ba0e029a1ea8